Tracking 34352 objects as of 8-Jun-2026
HD Live streaming from Space Station
objects crossing your sky now

STARLINK-2185

Track STARLINK-2185 now!
10-day predictions
STARLINK-2185 is classified as:


NORAD ID: 47767
Int'l Code: 2021-017AX
Perigee: 412.3 km
Apogee: 421.5 km
Inclination: 53.2 °
Period: 92.8 minutes
Semi major axis: 6787 km
RCS: Unknown
Launch date: March 4, 2021
Source: United States (US)
Launch site: AIR FORCE EASTERN TEST RANGE (AFETR)
Your satellite tracking list
Your tracking list is empty




NASA's NSSDC Master Catalog

Two Line Element Set (TLE):
1 47767U 21017AX  26159.21816286  .00067995  00000-0  10931-2 0  9991
2 47767  53.1539 134.5776 0006774  46.1276 314.0293 15.52381135291875
Source of the keplerian elements: AFSPC